Previsão horária em Braga

Hoje, 13 Abril, Terça-feira

Tempo Temperatura Precipitação Vento Pressão Humidade
00:00 +13°C° 0 mm 1 m/s 754 mmHg 71%
01:00 +13°C° 0 mm 1 m/s 754 mmHg 70%
02:00 +13°C° 0 mm 1 m/s 754 mmHg 69%
03:00 +13°C° 0.1 mm 1 m/s 754 mmHg 70%
04:00 +13°C° 0.1 mm 1 m/s 754 mmHg 72%
05:00 +10°C° 0 mm 2 m/s 754 mmHg 86%
06:00 +12°C° 0.2 mm 2 m/s 754 mmHg 86%
07:00 +12°C° 0.2 mm 2 m/s 754 mmHg 85%
08:00 +13°C° 0.2 mm 2 m/s 754 mmHg 85%
09:00 +13°C° 0.1 mm 1 m/s 754 mmHg 82%
10:00 +14°C° 0.1 mm 1 m/s 754 mmHg 79%
11:00 +15°C° 0.1 mm 1 m/s 754 mmHg 77%
12:00 +16°C° 0 mm 1 m/s 753 mmHg 74%
13:00 +18°C° 0 mm 1 m/s 753 mmHg 71%
14:00 +19°C° 0 mm 1 m/s 753 mmHg 68%
15:00 +19°C° 0 mm 1 m/s 753 mmHg 70%
16:00 +19°C° 0 mm 1 m/s 753 mmHg 71%
17:00 +19°C° 0 mm 1 m/s 753 mmHg 73%
18:00 +18°C° 0.1 mm 1 m/s 753 mmHg 76%
19:00 +16°C° 0.1 mm 1 m/s 753 mmHg 79%
20:00 +15°C° 0.1 mm 1 m/s 753 mmHg 82%
21:00 +15°C° 0.1 mm 1 m/s 753 mmHg 83%
22:00 +15°C° 0.1 mm 1 m/s 753 mmHg 83%
23:00 +15°C° 0.1 mm 1 m/s 752 mmHg 83%

Amanhã, 14 Abril, Quarta-feira

Tempo Temperatura Precipitação Vento Pressão Humidade
00:00 +15°C° 0 mm 1 m/s 752 mmHg 83%
01:00 +15°C° 0 mm 1 m/s 751 mmHg 82%
02:00 +14°C° 0 mm 1 m/s 751 mmHg 82%
03:00 +14°C° 0 mm 1 m/s 751 mmHg 83%
04:00 +14°C° 0 mm 2 m/s 751 mmHg 83%
05:00 +13°C° 0 mm 2 m/s 751 mmHg 84%
06:00 +15°C° 0 mm 2 m/s 751 mmHg 77%
07:00 +18°C° 0 mm 1 m/s 751 mmHg 70%
08:00 +20°C° 0 mm 1 m/s 751 mmHg 63%
09:00 +20°C° 0 mm 2 m/s 750 mmHg 58%
10:00 +23°C° 0 mm 2 m/s 750 mmHg 53%
11:00 +24°C° 0 mm 2 m/s 750 mmHg 48%
12:00 +24°C° 0.1 mm 2 m/s 749 mmHg 50%
13:00 +24°C° 0.1 mm 2 m/s 749 mmHg 51%
14:00 +24°C° 0.1 mm 2 m/s 748 mmHg 53%
15:00 +23°C° 0.1 mm 2 m/s 748 mmHg 58%
16:00 +22°C° 0.1 mm 1 m/s 748 mmHg 64%
17:00 +21°C° 0.1 mm 1 m/s 748 mmHg 70%
18:00 +20°C° 0 mm 1 m/s 749 mmHg 74%
19:00 +18°C° 0 mm 1 m/s 749 mmHg 79%
20:00 +16°C° 0 mm 1 m/s 749 mmHg 83%
21:00 +15°C° 0 mm 1 m/s 749 mmHg 84%
22:00 +15°C° 0 mm 1 m/s 749 mmHg 85%
23:00 +15°C° 0 mm 1 m/s 749 mmHg 86%

Depois de amanhã, 15 Abril, Quinta-feira

Tempo Temperatura Precipitação Vento Pressão Humidade
00:00 +14°C° 0 mm 1 m/s 749 mmHg 84%
01:00 +14°C° 0 mm 2 m/s 749 mmHg 82%
02:00 +14°C° 0 mm 2 m/s 749 mmHg 80%
03:00 +14°C° 0 mm 2 m/s 749 mmHg 78%
04:00 +13°C° 0 mm 2 m/s 749 mmHg 76%
05:00 +13°C° 0 mm 2 m/s 749 mmHg 75%
06:00 +15°C° 0 mm 2 m/s 749 mmHg 68%
07:00 +17°C° 0 mm 2 m/s 749 mmHg 62%
08:00 +19°C° 0 mm 2 m/s 749 mmHg 55%
09:00 +20°C° 0 mm 2 m/s 749 mmHg 52%
10:00 +23°C° 0 mm 2 m/s 749 mmHg 48%
11:00 +24°C° 0 mm 2 m/s 749 mmHg 45%
12:00 +24°C° 0 mm 2 m/s 749 mmHg 47%
13:00 +24°C° 0 mm 2 m/s 749 mmHg 49%
14:00 +24°C° 0 mm 2 m/s 748 mmHg 51%
15:00 +21°C° 0 mm 2 m/s 749 mmHg 58%
16:00 +20°C° 0 mm 2 m/s 749 mmHg 64%
17:00 +19°C° 0 mm 2 m/s 749 mmHg 71%
18:00 +19°C° 0 mm 1 m/s 749 mmHg 75%
19:00 +18°C° 0 mm 1 m/s 750 mmHg 78%
20:00 +16°C° 0 mm 1 m/s 750 mmHg 82%
21:00 +15°C° 0 mm 1 m/s 750 mmHg 83%
22:00 +15°C° 0 mm 1 m/s 750 mmHg 84%
23:00 +15°C° 0 mm 1 m/s 750 mmHg 85%

16 Abril, Sexta-feira

Tempo Temperatura Precipitação Vento Pressão Humidade
00:00 +15°C° 0 mm 1 m/s 750 mmHg 86%
01:00 +13°C° 0 mm 0 m/s 750 mmHg 86%
02:00 +13°C° 0 mm 0 m/s 750 mmHg 87%
03:00 +14°C° 0 mm 1 m/s 750 mmHg 88%
04:00 +13°C° 0 mm 1 m/s 750 mmHg 88%
05:00 +13°C° 0 mm 1 m/s 750 mmHg 89%
06:00 +15°C° 0 mm 1 m/s 750 mmHg 80%
07:00 +18°C° 0 mm 1 m/s 750 mmHg 72%
08:00 +18°C° 0 mm 0 m/s 750 mmHg 63%
09:00 +21°C° 0 mm 1 m/s 750 mmHg 59%
10:00 +22°C° 0 mm 1 m/s 750 mmHg 54%
11:00 +24°C° 0 mm 2 m/s 750 mmHg 50%
12:00 +24°C° 0 mm 2 m/s 750 mmHg 48%
13:00 +24°C° 0 mm 3 m/s 749 mmHg 46%
14:00 +23°C° 0 mm 4 m/s 749 mmHg 44%
15:00 +22°C° 0 mm 3 m/s 749 mmHg 45%
16:00 +21°C° 0 mm 3 m/s 749 mmHg 46%
17:00 +20°C° 0 mm 2 m/s 749 mmHg 48%
18:00 +17°C° 0 mm 2 m/s 750 mmHg 53%
19:00 +15°C° 0 mm 2 m/s 750 mmHg 59%
20:00 +13°C° 0 mm 2 m/s 751 mmHg 65%
21:00 +11°C° 0 mm 3 m/s 751 mmHg 63%
22:00 +11°C° 0 mm 3 m/s 752 mmHg 60%
23:00 +10°C° 0 mm 4 m/s 752 mmHg 58%

17 Abril, Sábado

Tempo Temperatura Precipitação Vento Pressão Humidade
00:00 +8°C° 0 mm 4 m/s 752 mmHg 56%
01:00 +7°C° 0 mm 4 m/s 753 mmHg 54%
02:00 +7°C° 0 mm 5 m/s 753 mmHg 52%
03:00 +6°C° 0 mm 4 m/s 753 mmHg 54%
04:00 +6°C° 0 mm 4 m/s 754 mmHg 56%
05:00 +5°C° 0 mm 3 m/s 754 mmHg 58%
06:00 +8°C° 0 mm 3 m/s 754 mmHg 51%
07:00 +10°C° 0 mm 3 m/s 754 mmHg 45%
08:00 +12°C° 0 mm 3 m/s 755 mmHg 39%
09:00 +15°C° 0 mm 2 m/s 755 mmHg 35%
10:00 +17°C° 0 mm 2 m/s 754 mmHg 32%
11:00 +19°C° 0 mm 2 m/s 754 mmHg 29%
12:00 +20°C° 0 mm 2 m/s 754 mmHg 30%
13:00 +20°C° 0 mm 2 m/s 754 mmHg 30%
14:00 +21°C° 0 mm 2 m/s 754 mmHg 31%
15:00 +19°C° 0 mm 2 m/s 754 mmHg 39%
16:00 +18°C° 0 mm 2 m/s 754 mmHg 47%
17:00 +17°C° 0 mm 2 m/s 754 mmHg 55%
18:00 +15°C° 0 mm 2 m/s 755 mmHg 59%
19:00 +14°C° 0 mm 1 m/s 755 mmHg 63%
20:00 +12°C° 0 mm 1 m/s 755 mmHg 67%
21:00 +12°C° 0 mm 1 m/s 755 mmHg 68%
22:00 +12°C° 0 mm 1 m/s 755 mmHg 69%
23:00 +11°C° 0 mm 1 m/s 755 mmHg 70%

18 Abril, Domingo

Tempo Temperatura Precipitação Vento Pressão Humidade
00:00 +11°C° 0 mm 1 m/s 755 mmHg 70%
01:00 +11°C° 0 mm 1 m/s 755 mmHg 70%
02:00 +10°C° 0 mm 1 m/s 755 mmHg 70%
03:00 +10°C° 0 mm 1 m/s 755 mmHg 69%
04:00 +10°C° 0 mm 1 m/s 755 mmHg 68%
05:00 +10°C° 0 mm 1 m/s 755 mmHg 68%
06:00 +12°C° 0 mm 1 m/s 755 mmHg 61%
07:00 +14°C° 0 mm 0 m/s 755 mmHg 54%
08:00 +17°C° 0 mm 0 m/s 755 mmHg 46%
09:00 +18°C° 0 mm 0 m/s 755 mmHg 43%
10:00 +21°C° 0 mm 1 m/s 754 mmHg 39%
11:00 +23°C° 0 mm 1 m/s 754 mmHg 36%
12:00 +23°C° 0 mm 2 m/s 754 mmHg 36%
13:00 +23°C° 0 mm 2 m/s 754 mmHg 37%
14:00 +23°C° 0 mm 2 m/s 753 mmHg 37%
15:00 +21°C° 0 mm 2 m/s 753 mmHg 44%
16:00 +20°C° 0 mm 2 m/s 753 mmHg 50%
17:00 +18°C° 0 mm 2 m/s 753 mmHg 57%
18:00 +16°C° 0 mm 2 m/s 754 mmHg 62%
19:00 +15°C° 0 mm 1 m/s 754 mmHg 68%
20:00 +13°C° 0 mm 1 m/s 754 mmHg 74%
21:00 +13°C° 0 mm 1 m/s 754 mmHg 72%
22:00 +13°C° 0 mm 1 m/s 754 mmHg 71%
23:00 +14°C° 0 mm 1 m/s 754 mmHg 69%
Mostrar mais

Necessitamos do seu Consentimento

A Meteoprog e os seus Fornecedores de Serviços podem armazenar e aceder a dados pessoais como cookies, identificadores do dispositivo ou outras tecnologias semelhantes existentes no seu dispositivo e processar estes dados para personalizar conteúdos e anúncios, assim como funcionalidades nas redes sociais e análise de tráfego.

  • Armazenar e/ou aceder a informações no seu dispositivo

    Os cookies, identificadores do dispositivo ou outras informações podem ser armazenados ou acedidos no seu dispositivo, para os fins acima indicados.

  • Anúncios e conteúdos personalizados, medição de anúncios e conteúdos, dados sobre o público-alvo e desenvolvimento de produtos

    Os anúncios e os conteúdos podem ser personalizados com base num perfil. Podem ser adicionados dados adicionais para uma maior personalização dos anúncios e dos conteúdos. A eficácia dos anúncios e dos conteúdos pode ser medida. Podem ser obtidas informações sobre o público que visualizou os anúncios e os conteúdos. Estes dados podem ser usados para desenvolver ou melhorar sistemas, softwares ou a experiência do utilizador.

Ao clicar em "Eu concordo”, permitirá o uso de cookies, identificadores do dispositivo e web beacons mencionados ou outras tecnologias semelhantes. As configurações do navegador do seu dispositivo podem ser alteradas.

Para certos fins, podem ser invocados interesses legítimos ao invés de consentimento. Pode ler mais informação sobre este assunto na nossa Política de Privacidade e Cookies.